Quillayute, WA

9:24 PM PDT on April 19, 2018 (GMT -0700)
Quillayute

Weather History for KUIL - April, 2014

Change the Weather History Date:

Tuesday, April 1, 2014

  Actual Average Record
Temperature  
Mean Temperature 47 °F 45 °F  
Max Temperature 58 °F 53 °F 81 °F (1987)
Min Temperature 36 °F 38 °F 23 °F (1999)
Degree Days  
Heating Degree Days 18 20  
Month to date heating degree days 18 20  
Since 1 July heating degree days 3798 4513  
Cooling Degree Days 0 0  
Month to date cooling degree days 0 0  
Year to date cooling degree days 0 0  
Moisture  
Dew Point 41 °F    
Average Humidity 83    
Maximum Humidity 100    
Minimum Humidity 65    
Precipitation  
Precipitation 0.00 in 0.32 in 2.15 in (1969)
Month to date precipitation 0.00 0.32  
Year to date precipitation 38.38 36.11  
Sea Level Pressure  
Sea Level Pressure 29.84 in    
Wind  
Wind Speed 5 mph (SE)    
Max Wind Speed 14 mph    
Max Gust Speed 18 mph    
Visibility 7 miles    
Events      
T = Trace of Precipitation, MM = Missing Value Source: NWS Daily Summary

Daily Weather History Graph

Daily Weather History Graph

Search for Another Location

Airport or City:

Astronomy

Apr. 01, 2014 Rise Set
Actual Time 6:56 AM PDT 7:48 PM PDT
Civil Twilight 6:24 AM PDT 8:20 PM PDT
Nautical Twilight 5:47 AM PDT 8:57 PM PDT
Astronomical Twilight 5:07 AM PDT 9:37 PM PDT
Moon 7:54 AM PDT (4/1) 10:28 PM PDT (4/1)
Length of Visible Light 13h 55m
Length of Day
12h 52m
Waxing Crescent, 5% of the Moon is Illuminated
Apr 1
Waxing Crescent
Apr 7
First Quarter
Apr 15
Full
Apr 22
Last Quarter
Apr 28
New

Hourly Weather History & Observations

Time (PDT) Temp. Windchill Dew Point Humidity Pressure Visibility Wind Dir Wind Speed Gust Speed Precip Events Conditions
12:53 AM 39.9 °F 37.8 °F 39.0 °F 97% 29.73 in 7.0 mi ENE 3.5 mph - N/A   Scattered Clouds
1:53 AM 44.1 °F 40.8 °F 37.0 °F 76% 29.73 in 8.0 mi NE 5.8 mph - N/A   Clear
2:53 AM 46.0 °F 43.9 °F 36.0 °F 68% 29.73 in 8.0 mi NE 4.6 mph - N/A   Overcast
3:53 AM 46.0 °F - 36.0 °F 68% 29.73 in 8.0 mi Calm Calm - N/A   Mostly Cloudy
4:53 AM 42.1 °F 39.2 °F 36.0 °F 79% 29.75 in 8.0 mi East 4.6 mph - N/A   Clear
5:53 AM 42.1 °F 39.2 °F 37.9 °F 85% 29.75 in 8.0 mi East 4.6 mph - N/A   Clear
6:53 AM 39.9 °F 35.8 °F 37.0 °F 89% 29.78 in 7.0 mi East 5.8 mph - N/A   Clear
7:53 AM 42.1 °F 37.1 °F 37.9 °F 85% 29.80 in 6.0 mi East 8.1 mph - N/A   Clear
8:53 AM 46.0 °F 43.1 °F 39.0 °F 76% 29.82 in 7.0 mi East 5.8 mph - N/A   Clear
9:53 AM 48.9 °F - 39.9 °F 71% 29.84 in 7.0 mi Calm Calm - N/A   Clear
10:53 AM 53.1 °F - 42.1 °F 66% 29.85 in 7.0 mi Variable 3.5 mph - N/A   Clear
11:53 AM 55.9 °F - 46.0 °F 69% 29.85 in 6.0 mi Variable 6.9 mph - N/A   Haze
12:53 PM 55.9 °F - 46.0 °F 69% 29.86 in 6.0 mi SW 8.1 mph - N/A   Haze
1:53 PM 55.0 °F - 44.1 °F 67% 29.87 in 6.0 mi SW 10.4 mph - N/A   Haze
2:53 PM 55.9 °F - 44.1 °F 64% 29.87 in 6.0 mi SW 9.2 mph - N/A   Haze
3:53 PM 55.0 °F - 45.0 °F 69% 29.87 in 6.0 mi SSW 9.2 mph - N/A   Haze
4:53 PM 53.1 °F - 45.0 °F 74% 29.88 in 6.0 mi SW 8.1 mph - N/A   Haze
5:53 PM 51.1 °F - 45.0 °F 80% 29.88 in 6.0 mi SW 8.1 mph - N/A   Haze
6:01 PM 51.1 °F - 45.0 °F 80% 29.88 in 6.0 mi SSW 6.9 mph - N/A   Haze
6:53 PM 50.0 °F - 44.1 °F 80% 29.90 in 6.0 mi South 4.6 mph - N/A   Haze
7:53 PM 46.9 °F - 44.1 °F 90% 29.90 in 6.0 mi Calm Calm - N/A   Clear
8:53 PM 43.0 °F - 39.9 °F 89% 29.91 in 6.0 mi Calm Calm - N/A   Clear
9:53 PM 43.0 °F 41.3 °F 42.1 °F 97% 29.92 in 6.0 mi East 3.5 mph - N/A   Clear
10:53 PM 39.9 °F - 39.0 °F 97% 29.93 in 6.0 mi Calm Calm - N/A   Clear
11:53 PM 39.0 °F - 37.9 °F 96% 29.93 in 5.0 mi Calm Calm - N/A   Clear